Location: Arborea
(39.7744°N, 8.5819°E)
Time: 04:19:33
(UTC+00:00)

Cosmos 1953 - Pass Details

Date: 07 June 2022
Orbit: 533 x 555 km, 82.5° (Epoch: 04 July)

Event Time Altitude Azimuth Distance (km) Brightness Sun altitude
Rises 22:27:32 0° 353° (N) 2,702 7.2 -26.0°
Reaches altitude 10° 22:29:43 10° 354° (N) 1,802 5.9 -26.1°
Enters shadow 22:32:39 49° 358° (N) 702 3.1 -26.2°
